Weather History for KFAY - August, 2013

Change the Weather History Date:

Friday, August 2, 2013

  Actual Average Record
Temperature  
Mean Temperature 82 °F 81 °F  
Max Temperature 90 °F 91 °F 105 °F (1980)
Min Temperature 74 °F 71 °F 58 °F (1997)
Degree Days  
Heating Degree Days 0 0  
Month to date heating degree days 0 0  
Since 1 June heating degree days 0 0  
Since 1 July heating degree days 0 0  
Cooling Degree Days 17 16  
Month to date cooling degree days 32 32  
Year to date cooling degree days 1175 1219  
Since 1 June cooling degree days 926 935  
Growing Degree Days 32 (Base 50)    
Moisture  
Dew Point 73 °F    
Average Humidity 78    
Maximum Humidity 100    
Minimum Humidity 56    
Precipitation  
Precipitation T in 0.18 in 3.10 in (1973)
Month to date precipitation 0.01 0.37  
Year to date precipitation 29.03 26.31  
Sea Level Pressure  
Sea Level Pressure 29.97 in    
Wind  
Wind Speed 6 mph (SSW)    
Max Wind Speed 14 mph    
Max Gust Speed 16 mph    
Visibility 8 miles    
Events Thunderstorm    
T = Trace of Precipitation, MM = Missing Value Source: NWS Daily Summary

Daily Weather History Graph

Daily Weather History Graph

Search for Another Location

Airport or City:

Trip Planner

Search our weather history database for the weather conditions in past years. The results will help you decide how hot, cold, wet, or windy it might be!

Date:

Astronomy

Aug. 02, 2013 Rise Set
Actual Time 6:25 AM EDT 8:17 PM EDT
Civil Twilight 5:58 AM EDT 8:44 PM EDT
Nautical Twilight 5:24 AM EDT 9:18 PM EDT
Astronomical Twilight 4:48 AM EDT 9:53 PM EDT
Moon 2:47 AM EDT (8/2) 5:11 PM EDT (8/2)
Length of Visible Light 14h 46m
Length of Day
13h 51m
Waning Crescent, 16% of the Moon is Illuminated
Aug 2
Waning Crescent
Aug 6
New
Aug 14
First Quarter
Aug 20
Full
Aug 28
Last Quarter

Hourly Weather History & Observations

Time (EDT) Temp. Heat Index Dew Point Humidity Pressure Visibility Wind Dir Wind Speed Gust Speed Precip Events Conditions
12:51 AM 75.2 °F - 73.4 °F 94% 29.96 in 9.0 mi South 4.6 mph - N/A   Mostly Cloudy
12:53 AM 75.9 °F - 73.0 °F 91% 29.94 in 9.0 mi South 4.6 mph - N/A   Mostly Cloudy
1:13 AM 75.2 °F - 73.4 °F 94% 29.95 in 8.0 mi South 8.1 mph - N/A   Mostly Cloudy
1:53 AM 75.9 °F - 73.9 °F 94% 29.93 in 7.0 mi South 3.5 mph - N/A   Overcast
2:15 AM 75.2 °F - 73.4 °F 94% 29.94 in 7.0 mi SSW 4.6 mph - N/A   Overcast
2:53 AM 75.9 °F - 73.9 °F 94% 29.92 in 6.0 mi SSW 4.6 mph - N/A   Overcast
3:53 AM 73.9 °F - 73.0 °F 97% 29.91 in 5.0 mi SW 4.6 mph - N/A   Partly Cloudy
4:49 AM 75.2 °F - 73.4 °F 94% 29.92 in 5.0 mi SW 4.6 mph - N/A   Mostly Cloudy
4:53 AM 75.0 °F - 73.9 °F 96% 29.91 in 5.0 mi SW 4.6 mph - N/A   Mostly Cloudy
5:53 AM 75.9 °F - 73.9 °F 94% 29.92 in 6.0 mi SW 6.9 mph - N/A   Overcast
6:39 AM 75.2 °F - 73.4 °F 94% 29.96 in 4.0 mi SSW 4.6 mph - N/A   Scattered Clouds
6:53 AM 75.0 °F - 73.0 °F 94% 29.94 in 3.0 mi SW 3.5 mph - N/A   Clear
7:23 AM 75.2 °F - 73.4 °F 94% 29.97 in 4.0 mi Calm Calm - N/A   Scattered Clouds
7:37 AM 75.2 °F - 73.4 °F 94% 29.98 in 5.0 mi West 3.5 mph - N/A   Mostly Cloudy
7:53 AM 75.9 °F - 73.9 °F 94% 29.97 in 5.0 mi WSW 4.6 mph - N/A   Mostly Cloudy
8:08 AM 78.8 °F - 73.4 °F 83% 29.99 in 6.0 mi West 4.6 mph - N/A   Scattered Clouds
8:19 AM 78.8 °F - 73.4 °F 83% 29.99 in 6.0 mi West 3.5 mph - N/A   Mostly Cloudy
8:53 AM 78.1 °F - 73.0 °F 84% 29.97 in 7.0 mi Calm Calm - N/A   Mostly Cloudy
9:00 AM 80.6 °F 85.4 °F 73.4 °F 79% 30.00 in 8.0 mi NNW 3.5 mph - N/A   Mostly Cloudy
9:12 AM 80.6 °F 85.4 °F 73.4 °F 79% 30.01 in 9.0 mi NW 3.5 mph - N/A   Mostly Cloudy
9:53 AM 81.0 °F 85.8 °F 73.0 °F 77% 30.00 in 10.0 mi ENE 3.5 mph - N/A   Mostly Cloudy
10:07 AM 80.6 °F 85.4 °F 73.4 °F 79% 30.01 in 10.0 mi Calm Calm - N/A   Scattered Clouds
10:53 AM 82.0 °F 86.7 °F 72.0 °F 71% 29.99 in 10.0 mi Calm Calm - N/A   Mostly Cloudy
11:06 AM 84.2 °F 89.6 °F 71.6 °F 66% 30.01 in 10.0 mi Calm Calm - N/A   Mostly Cloudy
11:42 AM 84.2 °F 89.6 °F 71.6 °F 66% 30.00 in 10.0 mi East 4.6 mph - N/A   Overcast
11:53 AM 84.9 °F 90.7 °F 72.0 °F 65% 29.99 in 10.0 mi Variable 5.8 mph - N/A   Overcast
12:53 PM 86.0 °F 92.2 °F 72.0 °F 63% 29.99 in 10.0 mi South 8.1 mph - N/A   Mostly Cloudy
1:02 PM 84.2 °F 90.9 °F 73.4 °F 70% 30.00 in 10.0 mi South 8.1 mph - N/A   Overcast
1:26 PM 87.8 °F 95.6 °F 73.4 °F 62% 30.00 in 10.0 mi SW 9.2 mph - N/A   Mostly Cloudy
1:53 PM 90.0 °F 96.9 °F 72.0 °F 55% 29.97 in 10.0 mi SSW 11.5 mph 16.1 mph N/A   Mostly Cloudy
2:53 PM 88.0 °F 94.7 °F 72.0 °F 59% 29.96 in 10.0 mi SSW 9.2 mph - N/A   Mostly Cloudy
3:53 PM 82.9 °F 90.8 °F 75.9 °F 79% 29.96 in 10.0 mi NE 3.5 mph - 0.00 in   Overcast
4:53 PM 88.0 °F 95.6 °F 73.0 °F 61% 29.96 in 10.0 mi West 10.4 mph - N/A   Partly Cloudy
5:53 PM 88.0 °F 95.6 °F 73.0 °F 61% 29.95 in 10.0 mi SW 8.1 mph - N/A   Scattered Clouds
6:53 PM 87.1 °F 95.4 °F 73.9 °F 65% 29.95 in 10.0 mi SW 6.9 mph - N/A   Clear
7:53 PM 84.0 °F 91.2 °F 73.9 °F 72% 29.96 in 9.0 mi SSW 4.6 mph - N/A   Partly Cloudy
8:53 PM 82.9 °F 89.4 °F 73.9 °F 74% 29.98 in 10.0 mi SSW 4.6 mph - N/A   Overcast
9:53 PM 81.0 °F 86.2 °F 73.9 °F 79% 29.99 in 10.0 mi South 4.6 mph - N/A   Mostly Cloudy
10:28 PM 80.6 °F 86.2 °F 75.2 °F 84% 30.03 in 9.0 mi East 3.5 mph - N/A Thunderstorm Mostly Cloudy
10:37 PM 80.6 °F 86.2 °F 75.2 °F 84% 30.03 in 8.0 mi ESE 3.5 mph - N/A   Overcast
10:53 PM 80.1 °F 85.1 °F 75.0 °F 85% 30.01 in 9.0 mi SW 5.8 mph - N/A   Overcast
11:21 PM 80.6 °F 86.2 °F 75.2 °F 84% 30.03 in 10.0 mi Calm Calm - N/A Thunderstorm Overcast
11:36 PM 80.6 °F 86.2 °F 75.2 °F 84% 30.03 in 10.0 mi South 4.6 mph - N/A Thunderstorm Overcast
11:53 PM 79.0 °F - 75.0 °F 88% 30.02 in 10.0 mi Variable 6.9 mph - N/A Thunderstorm Overcast